Location: ??????
(41.3794°N, 22.5014°E)
Time: 07:52:25
(UTC+00:00)

Lacrosse 5 rocket - Pass Details

Date: 30 November 2020
Orbit: 461 x 635 km, 57.0° (Epoch: 17 January)

Event Time Altitude Azimuth Distance (km) Brightness Sun altitude
Rises 16:50:41 0° 275° (W) 2,516 6.0 -20.0°
Reaches altitude 10° 16:53:44 10° 303° (WNW) 1,622 4.3 -20.5°
Maximum altitude 16:55:39 14° 335° (NNW) 1,400 3.5 -20.9°
Enters shadow 16:56:33 13° 351° (N) 1,447 3.4 -21.1°
